[[{"header":{"parameterUnit":"m.s-1","parameterCategory":1,"la1":30.2991,"la2":30.254,"lo1":-89.0895,"lo2":-89.0444,"dy":0.0017,"dx":0.0017,"nx":28,"ny":28,"refTime":"2024-03-08T09:00:00:Z","depth":0,"parameterNumber":2,"parameterNumberName":"U-component_of_WINDS"},"data":[0,0,0,0,0,0,0,0,0,0,0,0,0,0,0,0,0,0,0,0,0,0,0,0,0,0,0,0,0,0,0,0,0,0,0,0,0,0,0,0,0,0,0,0,0,0,0,0,0,0,0,0,0,0,0,0,0,0,3.8128,3.8129,0,3.8163,3.8163,3.8164,3.8159,3.8158,3.8157,3.8157,3.8192,3.8194,3.8195,0,0,0,0,0,0,0,0,0,0,0,0,0,3.8061,3.8062,3.8128,3.8129,3.8129,3.8163,3.8163,3.8164,3.8159,3.8158,3.8157,3.8157,3.8192,3.8193,3.8195,0,0,0,0,0,0,0,0,0,0,0,0,0,3.8092,3.8063,3.8128,3.8131,3.8131,3.8163,3.8163,3.8164,3.8159,3.8158,3.8157,3.8156,3.8191,3.8193,3.8196,3.8227,0,0,3.8202,3.8203,0,0,0,0,0,0,0,0,3.809,3.8095,3.813,3.8131,3.8131,3.8155,3.8152,3.8185,3.8159,3.8148,3.8157,3.8156,3.8181,3.8184,3.8192,3.8228,3.823,3.8203,3.8204,3.8205,3.8205,0,0,0,0,0,0,0,3.8088,3.8093,3.8142,3.813,3.8131,3.8131,3.8135,3.8159,3.8169,3.8149,3.8149,3.8153,3.8181,3.819,3.8193,3.823,3.8202,3.8204,3.8206,3.8207,3.8298,3.8299,0,0,0,0,0,0,3.8085,3.8091,3.8141,3.8143,3.8108,3.8133,3.8137,3.8149,3.8169,3.8171,3.8154,3.8153,3.8187,3.819,3.8194,3.8235,3.8205,3.8207,3.8208,3.8297,3.8299,3.83,0,0,0,0,0,0,3.8084,3.809,3.8139,3.8117,3.8124,3.8135,3.8148,3.815,3.8159,3.8172,3.8174,3.8161,3.8186,3.8191,3.822,3.8236,3.8208,3.821,3.8296,3.8298,3.8299,3.8314,0,0,0,0,0,0,3.8082,3.8089,3.81,3.8117,3.8125,3.8163,3.8149,3.8151,3.8163,3.8162,3.8179,3.8182,3.8186,3.8216,3.8222,3.8238,3.8212,3.8294,3.8297,3.8299,3.8312,3.8316,3.8319,0,0,0,0,0,3.8079,3.8102,3.8101,3.8107,3.8139,3.8164,3.8168,3.8173,3.8164,3.8176,3.8185,3.8181,3.8233,3.8219,3.8225,3.8243,3.8293,3.8296,3.8298,3.8311,3.8315,3.8319,0,0,0,0,0,0,3.8085,3.8104,3.8103,3.8132,3.8147,3.8163,3.8178,3.8177,3.8195,3.8193,3.8198,3.8202,3.8231,3.824,3.8224,3.8276,3.8262,3.8266,3.8269,3.8274,3.8277,3.8275,3.8213,0,0,0,0,0,3.809,3.8109,3.8124,3.8148,3.8156,3.8166,3.8177,3.818,3.8195,3.8201,3.8213,3.8228,3.8249,3.8262,3.8281,3.8314,3.8319,3.8329,3.8332,3.8335,3.8339,3.836,3.8366,3.8308,3.8308,3.8308,0,0,3.81,3.8113,3.8124,3.815,3.8162,3.8183,3.8171,3.8192,3.8208,3.8205,3.8233,3.8242,3.826,3.8292,3.8307,3.83,3.8356,3.8338,3.8341,3.8343,3.8363,3.8369,3.8374,3.8309,3.8309,3.8309,0,0,3.8128,3.8139,3.8162,3.8175,3.8193,3.82,3.8206,3.8224,3.823,3.8259,3.8258,3.8277,3.8311,3.8325,3.8336,3.8375,3.8373,3.8381,3.84,3.8421,3.8425,3.8429,3.8445,3.8451,3.8384,3.8384,3.8384,0,3.8138,3.8168,3.8173,3.8196,3.8209,3.8208,3.8232,3.8244,3.8268,3.8278,3.827,3.8316,3.8327,3.8364,3.8374,3.8382,3.8391,3.8379,3.8424,3.8428,3.8432,3.8448,3.8453,3.8385,3.8385,3.8385,3.8385,0,3.8181,3.8202,3.8218,3.8243,3.8258,3.8281,3.8291,3.8306,3.8308,3.8317,3.8348,3.8362,3.8386,3.8395,3.8396,3.8433,3.8429,3.8423,3.8409,3.8439,3.8453,3.8459,3.8387,3.8386,3.8386,3.8386,0,0,3.8212,3.8241,3.8247,3.826,3.8282,3.83,3.8324,3.8348,3.8362,3.8379,3.8402,3.8432,3.8428,3.8441,3.8445,3.8463,3.8496,3.8455,3.8456,3.8464,3.8541,3.8546,3.8553,3.8495,3.8496,3.8497,3.854,0,3.8244,3.8287,3.8294,3.8333,3.8355,3.8356,3.8378,3.8395,3.8404,3.8425,3.8436,3.8459,3.8449,3.8458,3.8476,3.8488,3.8512,3.8485,3.8518,3.8519,3.8514,3.856,3.8565,3.8605,3.8546,3.8547,3.8547,0,3.8286,3.8307,3.8348,3.8371,3.838,3.8399,3.8424,3.8443,3.8464,3.847,3.8487,3.8489,3.8517,3.8503,3.8542,3.8524,3.8538,3.8547,3.8548,3.8552,3.8535,3.8567,3.8617,3.8624,3.8556,3.8555,3.8555,0,3.8307,3.8345,3.8375,3.8386,3.8413,3.8427,3.8439,3.8459,3.8474,3.8496,3.8506,3.8531,3.8545,3.8564,3.8574,3.8562,3.8615,3.86,3.8622,3.8622,3.8633,3.8632,3.8688,3.864,3.864,3.864,3.864,0,3.8343,3.8369,3.8386,3.8404,3.8434,3.8443,3.8473,3.8485,3.8503,3.8526,3.8528,3.8549,3.8561,3.8584,3.8592,3.8626,3.8632,3.8639,3.8641,3.8639,3.8638,3.8648,3.8646,3.8641,3.8641,3.8641,3.8641,0,3.8371,3.8383,3.8417,3.8441,3.8448,3.8469,3.849,3.8509,3.852,3.8549,3.8556,3.8573,3.8601,3.8614,3.8648,3.8653,3.8693,3.8692,3.8686,3.8687,3.8709,3.8707,3.8774,3.8784,3.8728,3.8729,3.8729,0,3.8393,3.8414,3.844,3.8456,3.8469,3.8493,3.851,3.852,3.8538,3.8565,3.8582,3.861,3.8634,3.8679,3.8695,3.8723,3.8723,3.8745,3.8727,3.8726,3.8726,3.8725,3.8729,3.8748,3.8749,3.8749,3.875,0,3.8432,3.8439,3.8462,3.8489,3.8508,3.853,3.855,3.8563,3.8578,3.8597,3.8627,3.8645,3.8682,3.8711,3.874,3.8754,3.8755,3.8755,3.8762,3.8761,3.8758,3.8762,3.8696,3.8754,3.8753,3.8753,3.8753,3.8753,3.8459,3.8479,3.8502,3.8529,3.8546,3.8567,3.8587,3.8602,3.8626,3.8657,3.8663,3.8695,3.8719,3.8758,3.8773,3.88,3.8794,3.8804,3.8806,3.8809,3.8811,3.8753,3.8805,3.8805,3.8805,3.8804,3.8804,0,3.85,3.8516,3.8541,3.8571,3.8593,3.8593,3.8618,3.8636,3.8665,3.8687,3.8711,3.8746,3.8776,3.8796,3.8826,3.8844,3.8845,3.8851,3.8851,3.8854,3.8813,3.8805,3.885,3.885,3.885,3.885,3.885,3.885,3.8524,3.8558,3.8567,3.8611,3.8627,3.8658,3.8673,3.8693,3.8711,3.8751,3.8776,3.8789,3.8811,3.8843,3.8871,3.8877,3.8888,3.8895,3.89,3.8861,3.8857,3.8852,3.8845,3.8897,3.8897,3.894,3.894,3.894]},{"header":{"parameterUnit":"m.s-1","parameterCategory":1,"la1":30.2991,"la2":30.254,"lo1":-89.0895,"lo2":-89.0444,"dy":0.0017,"dx":0.0017,"nx":28,"ny":28,"refTime":"2024-03-08T09:00:00:Z","depth":0,"parameterNumber":3,"parameterNumberName":"V-component_of_WINDS"},"data":[0,0,0,0,0,0,0,0,0,0,0,0,0,0,0,0,0,0,0,0,0,0,0,0,0,0,0,0,0,0,0,0,0,0,0,0,0,0,0,0,0,0,0,0,0,0,0,0,0,0,0,0,0,0,0,0,0,0,-2.8059,-2.8059,0,-2.7983,-2.7982,-2.7981,-2.7989,-2.7991,-2.7992,-2.7993,-2.7911,-2.7907,-2.7904,0,0,0,0,0,0,0,0,0,0,0,0,0,-2.8209,-2.8206,-2.8059,-2.8058,-2.8058,-2.7983,-2.7982,-2.7981,-2.7989,-2.7991,-2.7992,-2.7994,-2.7912,-2.7908,-2.7904,0,0,0,0,0,0,0,0,0,0,0,0,0,-2.814,-2.8206,-2.806,-2.8053,-2.8051,-2.7984,-2.7982,-2.7981,-2.7989,-2.7991,-2.7993,-2.7994,-2.7913,-2.7908,-2.7903,-2.7836,0,0,-2.7888,-2.7886,0,0,0,0,0,0,0,0,-2.8144,-2.8134,-2.8055,-2.8053,-2.8051,-2.7998,-2.8005,-2.7932,-2.7988,-2.8012,-2.7993,-2.7995,-2.7938,-2.7931,-2.7913,-2.7832,-2.7829,-2.7888,-2.7885,-2.7882,-2.7881,0,0,0,0,0,0,0,-2.8148,-2.8137,-2.8029,-2.8054,-2.8051,-2.8053,-2.8045,-2.7991,-2.7966,-2.8011,-2.8011,-2.8002,-2.7937,-2.7917,-2.7911,-2.7828,-2.7888,-2.7883,-2.788,-2.7878,-2.7689,-2.7687,0,0,0,0,0,0,-2.8155,-2.8141,-2.8032,-2.8027,-2.8103,-2.8048,-2.804,-2.8013,-2.7966,-2.7961,-2.8001,-2.8003,-2.7925,-2.7916,-2.7908,-2.7826,-2.7883,-2.7878,-2.7875,-2.7691,-2.7689,-2.7687,0,0,0,0,0,0,-2.8159,-2.8145,-2.8035,-2.8084,-2.807,-2.8044,-2.8014,-2.8011,-2.7991,-2.7959,-2.7954,-2.7985,-2.7926,-2.7915,-2.7854,-2.7824,-2.7876,-2.7871,-2.7694,-2.7691,-2.7688,-2.7663,0,0,0,0,0,0,-2.8163,-2.8147,-2.8121,-2.8084,-2.8068,-2.7983,-2.8012,-2.8008,-2.7983,-2.7985,-2.7943,-2.7938,-2.7927,-2.7862,-2.7849,-2.7818,-2.7867,-2.7696,-2.7692,-2.7689,-2.7666,-2.7659,-2.7653,0,0,0,0,0,-2.8168,-2.8116,-2.812,-2.8107,-2.8036,-2.7981,-2.7972,-2.7961,-2.798,-2.7954,-2.7934,-2.7939,-2.783,-2.7856,-2.7842,-2.7808,-2.7698,-2.7693,-2.7689,-2.7669,-2.7661,-2.7653,0,0,0,0,0,0,-2.8148,-2.8111,-2.8115,-2.8049,-2.8019,-2.7983,-2.7949,-2.7953,-2.7915,-2.7918,-2.7906,-2.7896,-2.7835,-2.7816,-2.7846,-2.7741,-2.7766,-2.7759,-2.7756,-2.7747,-2.7741,-2.7746,-2.7863,0,0,0,0,0,-2.8137,-2.8097,-2.8066,-2.8011,-2.7996,-2.7976,-2.7951,-2.7946,-2.7914,-2.79,-2.7876,-2.7843,-2.7801,-2.7773,-2.7733,-2.7664,-2.7655,-2.7634,-2.7628,-2.7623,-2.7616,-2.7578,-2.7569,-2.7672,-2.7672,-2.7672,0,0,-2.8112,-2.8086,-2.8062,-2.8007,-2.7982,-2.7941,-2.7964,-2.7919,-2.7888,-2.7893,-2.7835,-2.7816,-2.7778,-2.7713,-2.7684,-2.7695,-2.7586,-2.7617,-2.7613,-2.7609,-2.7573,-2.7563,-2.7554,-2.7669,-2.7669,-2.767,0,0,-2.8044,-2.8022,-2.7974,-2.795,-2.7914,-2.7901,-2.7889,-2.7854,-2.7842,-2.7784,-2.7787,-2.7749,-2.7677,-2.7651,-2.7628,-2.7553,-2.7557,-2.7541,-2.7506,-2.747,-2.7462,-2.7455,-2.7428,-2.7418,-2.7534,-2.7534,-2.7534,0,-2.8017,-2.7956,-2.7948,-2.7903,-2.7879,-2.7884,-2.7835,-2.7812,-2.7763,-2.7746,-2.7761,-2.7672,-2.7647,-2.7576,-2.7558,-2.754,-2.7526,-2.7544,-2.7464,-2.7456,-2.745,-2.7424,-2.7414,-2.7532,-2.7533,-2.7533,-2.7533,0,-2.7924,-2.7881,-2.7847,-2.7803,-2.7775,-2.7727,-2.7712,-2.7685,-2.7683,-2.7669,-2.761,-2.758,-2.7535,-2.7518,-2.7514,-2.7447,-2.7455,-2.7467,-2.7492,-2.7438,-2.7414,-2.7404,-2.753,-2.753,-2.7531,-2.7531,0,0,-2.7839,-2.7794,-2.7781,-2.7762,-2.7723,-2.769,-2.7643,-2.7601,-2.7577,-2.7544,-2.7505,-2.7445,-2.7456,-2.743,-2.7424,-2.7393,-2.7336,-2.7408,-2.7407,-2.7395,-2.7259,-2.725,-2.7239,-2.7339,-2.7337,-2.7335,-2.7262,0,-2.7768,-2.7687,-2.768,-2.7607,-2.7568,-2.7574,-2.7533,-2.7505,-2.7491,-2.7455,-2.7439,-2.7397,-2.7415,-2.7399,-2.7368,-2.7349,-2.7308,-2.7354,-2.73,-2.7298,-2.7308,-2.7226,-2.7215,-2.7148,-2.7253,-2.7251,-2.725,0,-2.7673,-2.764,-2.7563,-2.7532,-2.7515,-2.7479,-2.744,-2.7406,-2.7374,-2.7366,-2.7339,-2.7338,-2.7289,-2.7318,-2.7251,-2.7283,-2.726,-2.7248,-2.7245,-2.7238,-2.727,-2.7216,-2.7126,-2.7116,-2.7235,-2.7236,-2.7237,0,-2.7619,-2.7555,-2.7501,-2.7484,-2.7446,-2.7421,-2.7404,-2.7374,-2.735,-2.7315,-2.7299,-2.7259,-2.7237,-2.7205,-2.7193,-2.7215,-2.7127,-2.7154,-2.7118,-2.7118,-2.7098,-2.7099,-2.7002,-2.7085,-2.7086,-2.7086,-2.7086,0,-2.7539,-2.7491,-2.7476,-2.7443,-2.7391,-2.7383,-2.7331,-2.7315,-2.729,-2.7253,-2.7255,-2.722,-2.7207,-2.717,-2.7161,-2.7107,-2.7097,-2.7088,-2.7086,-2.7087,-2.7088,-2.7071,-2.7075,-2.7083,-2.7084,-2.7084,-2.7085,0,-2.7468,-2.7456,-2.7398,-2.7368,-2.736,-2.7322,-2.7296,-2.7264,-2.7252,-2.7205,-2.7194,-2.7173,-2.713,-2.7116,-2.7063,-2.7057,-2.6994,-2.6996,-2.7005,-2.7004,-2.6968,-2.6972,-2.6856,-2.684,-2.6935,-2.6934,-2.6934,0,-2.7417,-2.7381,-2.7348,-2.7325,-2.7308,-2.7269,-2.7245,-2.7237,-2.7211,-2.7174,-2.7146,-2.7104,-2.7069,-2.7,-2.698,-2.6939,-2.694,-2.6903,-2.6934,-2.6937,-2.6938,-2.694,-2.6937,-2.6896,-2.6895,-2.6894,-2.6894,0,-2.7328,-2.7324,-2.729,-2.7253,-2.7224,-2.7195,-2.7166,-2.7146,-2.7134,-2.7105,-2.7062,-2.7036,-2.6983,-2.6941,-2.6901,-2.6882,-2.6885,-2.6885,-2.6874,-2.6874,-2.688,-2.6876,-2.6987,-2.6886,-2.6887,-2.6888,-2.6888,-2.6888,-2.7264,-2.7233,-2.7206,-2.7168,-2.7146,-2.712,-2.7088,-2.7073,-2.7038,-2.6995,-2.6993,-2.6946,-2.6917,-2.6863,-2.6843,-2.6806,-2.6816,-2.6801,-2.6797,-2.6793,-2.679,-2.6888,-2.6798,-2.6799,-2.6799,-2.6799,-2.6799,0,-2.7175,-2.7158,-2.7123,-2.7084,-2.7054,-2.7063,-2.7032,-2.7006,-2.6965,-2.6939,-2.6906,-2.6856,-2.6816,-2.6794,-2.6754,-2.6728,-2.6729,-2.6718,-2.6719,-2.6714,-2.6783,-2.6796,-2.6718,-2.6718,-2.6718,-2.6718,-2.6718,-2.6718,-2.7124,-2.7073,-2.7066,-2.7004,-2.6987,-2.6943,-2.6925,-2.69,-2.6879,-2.6825,-2.6792,-2.6779,-2.6753,-2.6712,-2.6675,-2.667,-2.6654,-2.6642,-2.6637,-2.6701,-2.6709,-2.6717,-2.6729,-2.6639,-2.6639,-2.6571,-2.6571,-2.657]}]]